Weather History for Aberdeen / Amory, MS

Change the Weather History Date:

Saturday, June 22, 2013

  Actual Average (KCBM) Record (KCBM)
Temperature  
Mean Temperature 80 °F -  
Max Temperature 93 °F 86 °F 96 °F (1998)
Min Temperature 68 °F 67 °F 59 °F (2007)
Cooling Degree Days 16    
Growing Degree Days 30 (Base 50)    
Moisture  
Dew Point 63 °F    
Average Humidity 55    
Maximum Humidity 58    
Minimum Humidity 53    
Precipitation  
Precipitation 0.00 in - - ()
Sea Level Pressure  
Sea Level Pressure 30.13 in    
Wind  
Wind Speed 2 mph (SE)    
Max Wind Speed 8 mph    
Max Gust Speed -    
Visibility 8 miles    
Events      
Averages and records for this station are not official NWS values.
T = Trace of Precipitation, MM = Missing Value Source: NWS Daily Summary

Daily Weather History Graph

Daily Weather History Graph

Search for Another Location

Airport:

Trip Planner

Search our weather history database for the weather conditions in past years. The results will help you decide how hot, cold, wet, or windy it might be!

Date:

Astronomy

Jun. 22, 2013 Rise Set
Actual Time 5:43 AM CDT 8:08 PM CDT
Civil Twilight 5:14 AM CDT 8:37 PM CDT
Nautical Twilight 4:38 AM CDT 9:13 PM CDT
Astronomical Twilight 3:59 AM CDT 9:52 PM CDT
Moon 7:25 PM CDT (6/22) 4:53 AM CDT (6/22)
Length of Visible Light 15h 22m
Length of Day
14h 24m
Waxing Gibbous, 99% of the Moon is Illuminated
Jun 22
Waxing Gibbous
Jun 23
Full
Jun 29
Last Quarter
Jul 8
New
Jul 15
First Quarter

Hourly Weather History & Observations

Time (CDT) Temp. Heat Index Dew Point Humidity Pressure Visibility Wind Dir Wind Speed Gust Speed Precip Events Conditions
12:15 AM 71.6 °F - 53.6 °F 53% 30.14 in 7.0 mi Calm Calm - N/A   Clear
12:35 AM 71.6 °F - 55.4 °F 57% 30.14 in 10.0 mi Calm Calm - N/A   Clear
12:55 AM 71.6 °F - 55.4 °F 57% 30.13 in 9.0 mi Calm Calm - N/A   Clear
1:15 AM 71.6 °F - 55.4 °F 57% 30.13 in 10.0 mi Calm Calm - N/A   Clear
1:35 AM 71.6 °F - 55.4 °F 57% 30.12 in 10.0 mi Calm Calm - N/A   Clear
1:55 AM 71.6 °F - 55.4 °F 57% 30.12 in 10.0 mi Calm Calm - N/A   Clear
2:15 AM 71.6 °F - 55.4 °F 57% 30.11 in 9.0 mi Calm Calm - N/A   Clear
2:35 AM 71.6 °F - 55.4 °F 57% 30.11 in 9.0 mi Calm Calm - N/A   Clear
2:55 AM 71.6 °F - 55.4 °F 57% 30.12 in 9.0 mi Calm Calm - N/A   Clear
3:15 AM 71.6 °F - 53.6 °F 53% 30.11 in 10.0 mi Calm Calm - N/A   Clear
3:35 AM 69.8 °F - 53.6 °F 56% 30.11 in 7.0 mi Calm Calm - N/A   Clear
3:55 AM 69.8 °F - 53.6 °F 56% 30.11 in 8.0 mi Calm Calm - N/A   Clear
4:15 AM 69.8 °F - 51.8 °F 53% 30.11 in 8.0 mi Calm Calm - N/A   Clear
4:35 AM 69.8 °F - 51.8 °F 53% 30.12 in 8.0 mi Calm Calm - N/A   Clear
4:55 AM 68.0 °F - 51.8 °F 56% 30.12 in 5.0 mi Calm Calm - N/A   Haze
5:15 AM 68.0 °F - 51.8 °F 56% 30.13 in 5.0 mi Calm Calm - N/A   Haze
5:35 AM 68.0 °F - 51.8 °F 56% 30.13 in 6.0 mi Calm Calm - N/A   Haze
5:55 AM 68.0 °F - 51.8 °F 56% 30.14 in 5.0 mi Calm Calm - N/A   Haze
6:15 AM 68.0 °F - 51.8 °F 56% 30.14 in 5.0 mi Calm Calm - N/A   Haze
6:35 AM 69.8 °F - 53.6 °F 56% 30.14 in 5.0 mi Calm Calm - N/A   Haze
6:55 AM 71.6 °F - 55.4 °F 57% 30.15 in 7.0 mi Calm Calm - N/A   Clear
7:15 AM 75.2 °F - 57.2 °F 53% 30.16 in 8.0 mi Calm Calm - N/A   Clear
7:35 AM 75.2 °F - 59.0 °F 57% 30.16 in 7.0 mi ESE 3.5 mph - N/A   Partly Cloudy
7:55 AM 77.0 °F - 60.8 °F 57% 30.17 in 7.0 mi SE 3.5 mph - N/A   Light Drizzle
8:15 AM 80.6 °F 81.8 °F 62.6 °F 54% 30.18 in 7.0 mi SSE 3.5 mph - N/A   Partly Cloudy
8:35 AM 80.6 °F 81.8 °F 62.6 °F 54% 30.18 in 8.0 mi SSE 4.6 mph - N/A   Clear
8:55 AM 82.4 °F 83.9 °F 64.4 °F 54% 30.18 in 9.0 mi SSE 5.8 mph - N/A   Clear
9:15 AM 82.4 °F 84.6 °F 66.2 °F 58% 30.18 in 8.0 mi SE 8.1 mph - N/A   Clear
9:35 AM 84.2 °F 86.6 °F 66.2 °F 55% 30.18 in 9.0 mi SE 8.1 mph - N/A   Clear
9:55 AM 84.2 °F 86.6 °F 66.2 °F 55% 30.18 in 8.0 mi SE 8.1 mph - N/A   Clear
10:15 AM 86.0 °F 90.4 °F 69.8 °F 58% 30.18 in 8.0 mi SSE 6.9 mph - N/A   Clear
10:35 AM 87.8 °F 92.6 °F 69.8 °F 55% 30.19 in 9.0 mi ESE 5.8 mph - N/A   Clear
10:55 AM 89.6 °F 96.2 °F 71.6 °F 55% 30.19 in 9.0 mi SSE 5.8 mph - N/A   Clear
11:15 AM 89.6 °F 96.2 °F 71.6 °F 55% 30.19 in 10.0 mi SSE 5.8 mph - N/A   Clear
11:35 AM 91.4 °F 100.1 °F 73.4 °F 55% 30.19 in 9.0 mi SSE 6.9 mph - N/A   Clear
11:55 AM 91.4 °F 100.1 °F 73.4 °F 55% 30.18 in 9.0 mi SSE 8.1 mph - N/A   Partly Cloudy
12:15 PM 91.4 °F 100.1 °F 73.4 °F 55% 30.18 in 8.0 mi SE 5.8 mph - N/A   Partly Cloudy
12:35 PM 91.4 °F 100.1 °F 73.4 °F 55% 30.17 in 8.0 mi SE 8.1 mph - N/A   Clear
12:55 PM 93.2 °F 105.0 °F 75.2 °F 56% 30.17 in 9.0 mi SSE 3.5 mph - N/A   Clear
1:15 PM 91.4 °F 100.1 °F 73.4 °F 55% 30.16 in 9.0 mi East 4.6 mph - N/A   Partly Cloudy
1:35 PM 93.2 °F 105.0 °F 75.2 °F 56% 30.16 in 9.0 mi ESE 5.8 mph - N/A   Partly Cloudy
1:55 PM 93.2 °F 105.0 °F 75.2 °F 56% 30.15 in 10.0 mi SE 6.9 mph - N/A   Clear
2:15 PM 93.2 °F 105.0 °F 75.2 °F 56% 30.15 in 9.0 mi ESE 5.8 mph - N/A   Clear
2:35 PM 93.2 °F 105.0 °F 75.2 °F 56% 30.14 in 10.0 mi SSE 4.6 mph - N/A   Clear
2:55 PM 93.2 °F 105.0 °F 75.2 °F 56% 30.13 in 9.0 mi SSE 6.9 mph - N/A   Clear
3:15 PM 93.2 °F 105.0 °F 75.2 °F 56% 30.12 in 9.0 mi SE 4.6 mph - N/A   Clear
3:35 PM 91.4 °F 100.1 °F 73.4 °F 55% 30.11 in 9.0 mi East 5.8 mph - N/A   Clear
3:55 PM 93.2 °F 105.0 °F 75.2 °F 56% 30.10 in 8.0 mi Calm Calm - N/A   Clear
4:15 PM 93.2 °F 105.0 °F 75.2 °F 56% 30.09 in 9.0 mi SE 8.1 mph - N/A   Clear
4:35 PM 91.4 °F 100.1 °F 73.4 °F 55% 30.08 in 10.0 mi SE 6.9 mph - N/A   Clear
4:55 PM 91.4 °F 100.1 °F 73.4 °F 55% 30.07 in 10.0 mi South 4.6 mph - N/A   Clear
5:15 PM 91.4 °F 100.1 °F 73.4 °F 55% 30.07 in 9.0 mi SE 5.8 mph - N/A   Clear
5:35 PM 91.4 °F 100.1 °F 73.4 °F 55% 30.06 in 9.0 mi ESE 5.8 mph - N/A   Clear
5:55 PM 89.6 °F 96.2 °F 71.6 °F 55% 30.05 in 9.0 mi SE 4.6 mph - N/A   Clear
6:15 PM 89.6 °F 96.2 °F 71.6 °F 55% 30.05 in 9.0 mi SSE 5.8 mph - N/A   Clear
6:35 PM 89.6 °F 96.2 °F 71.6 °F 55% 30.05 in 9.0 mi SE 3.5 mph - N/A   Clear
6:55 PM 87.8 °F 92.6 °F 69.8 °F 55% 30.06 in 9.0 mi SE 3.5 mph - N/A   Clear
7:15 PM 87.8 °F 92.6 °F 69.8 °F 55% 30.06 in 9.0 mi Calm Calm - N/A   Clear
7:35 PM 84.2 °F 86.6 °F 66.2 °F 55% 30.06 in 8.0 mi Calm Calm - N/A   Clear
7:55 PM 80.6 °F 82.3 °F 64.4 °F 58% 30.07 in 8.0 mi Calm Calm - N/A   Clear
8:15 PM 78.8 °F - 60.8 °F 54% 30.07 in 7.0 mi Calm Calm - N/A   Clear
8:35 PM 75.2 °F - 59.0 °F 57% 30.08 in 10.0 mi Calm Calm - N/A   Clear
8:55 PM 75.2 °F - 57.2 °F 53% 30.09 in 9.0 mi Calm Calm - N/A   Clear
9:15 PM 75.2 °F - 59.0 °F 57% 30.09 in 9.0 mi Calm Calm - N/A   Clear
9:35 PM 75.2 °F - 57.2 °F 53% 30.10 in 8.0 mi Calm Calm - N/A   Clear
9:55 PM 75.2 °F - 57.2 °F 53% 30.10 in 10.0 mi Calm Calm - N/A   Clear
10:15 PM 75.2 °F - 57.2 °F 53% 30.10 in 9.0 mi East 3.5 mph - N/A   Clear
10:35 PM 75.2 °F - 57.2 °F 53% 30.11 in 9.0 mi Calm Calm - N/A   Clear
10:55 PM 73.4 °F - 57.2 °F 57% 30.11 in 9.0 mi Calm Calm - N/A   Clear
11:15 PM 73.4 °F - 57.2 °F 57% 30.11 in 9.0 mi Calm Calm - N/A   Clear
11:35 PM 73.4 °F - 57.2 °F 57% 30.11 in 10.0 mi Calm Calm - N/A   Clear
11:55 PM 73.4 °F - 57.2 °F 57% 30.11 in 9.0 mi Calm Calm - N/A   Clear